Weather in Zelenga

Russia / Astrakhan Oblast     46°10′38″N   48°36′31″E
temp.,
°C
wind,
m/s
gust,
m/s
humid.,
%
clouds,
%
prec.,
mm/h
press.,
hPa
HPBL,
m
1 august, sun
sun101:00+23s226299 0.0 101213
04:00+22s116314 0.0 101111
07:00+25ese114911 0.0 101276
10:00+33se352418 0.0 10121377
13:00+36sse642339 0.3 10112241
16:00+35sse3326100 1.2 10111321
19:00+34s452363 0.0 1010500
22:00+26s33385 0.0 101134
2 august, mon
mon201:00+24sw22405 0.0 101111
04:00+26ne1136100 0.0 101111
07:00+28ne233057 0.0 101288
10:00+36ese44165 0.0 10121080
13:00+40se761197 0.0 10113302
16:00+39se6710100 0.0 10112175
19:00+34se461790 0.0 1011366
22:00+27sse234140 0.0 101117
3 august, tue
tue301:00+25s224119 0.0 101114
04:00+25sw11394 0.0 101111
07:00+28ne222710 0.0 101260
10:00+38ese331145 0.0 10111105
13:00+41se65816 0.0 10104228
16:00+41sse6480 0.0 10104397
19:00+37sse57120 0.0 1010446
22:00+28ssw33230 0.0 101034
4 august, wed
wed401:00+26sw22290 0.0 101013
04:00+25wsw22340 0.0 101111
07:00+28ssw12320 0.0 101150
10:00+38s34130 0.0 10111039
13:00+41s7695 0.0 10103754
16:00+41s7590 0.0 10103546
19:00+36s67155 0.0 1010444
22:00+26w333737 0.0 101133
5 august, thu
thu501:00+26w343621 0.0 101145
04:00+25nw223511 0.0 101012
07:00+28n25365 0.0 1011125
10:00+35n7827100 0.0 10121451
13:00+34n9830100 0.0 10132008
16:00+31nw5634100 0.0 1013839
19:00+33nw56310 0.0 10121514
22:00+27n34420 0.0 101352